FDX830 KMCO-KMEM

Flight info

Callsign FDX830
Flight time 1h 43m
Altitude 34000
Route RDSOX1 JFRYS PATOY Q116 GOOGY WASER VANZE3
Aircraft B77L/H-SDE1E2E3FGHIJ2J3J4J5M1RWXY/LB1D1

Departure

Time 2026-04-22 04:28
Airport Orlando International Airport (KMCO)

Arrival

Time 2026-04-22 06:12
Airport Memphis International Airport (KMEM)
Time Latitude Longitude Altitude Speed Heading
2026-04-22 04:05 28.41474 -81.33428 106 ft 0 kts 359°
2026-04-22 04:19 28.41463 -81.33428 106 ft 4 kts
2026-04-22 04:19 28.41437 -81.33429 106 ft 4 kts 12°
2026-04-22 04:20 28.41414 -81.33441 107 ft 4 kts 49°
2026-04-22 04:20 28.41403 -81.33465 105 ft 2 kts 88°
2026-04-22 04:20 28.41403 -81.33468 105 ft 1 kts 89°
2026-04-22 04:22 28.41403 -81.33466 105 ft 1 kts 93°
2026-04-22 04:22 28.41403 -81.33446 106 ft 4 kts 87°
2026-04-22 04:22 28.41404 -81.33401 107 ft 7 kts 89°
2026-04-22 04:23 28.41405 -81.33332 108 ft 10 kts 89°
2026-04-22 04:23 28.41405 -81.33236 109 ft 14 kts 90°
2026-04-22 04:23 28.41406 -81.33114 109 ft 17 kts 89°
2026-04-22 04:23 28.41456 -81.33001 109 ft 14 kts 46°
2026-04-22 04:24 28.41505 -81.32908 110 ft 14 kts 75°
2026-04-22 04:24 28.41534 -81.32803 110 ft 14 kts 80°
2026-04-22 04:24 28.41538 -81.32693 111 ft 14 kts 89°
2026-04-22 04:24 28.41540 -81.32581 112 ft 15 kts 89°
2026-04-22 04:25 28.41541 -81.32453 107 ft 17 kts 90°
2026-04-22 04:25 28.41542 -81.32336 105 ft 3 kts 89°
2026-04-22 04:25 28.41542 -81.32333 105 ft 0 kts 89°
2026-04-22 04:26 28.41542 -81.32314 105 ft 4 kts 89°
2026-04-22 04:27 28.41542 -81.32262 106 ft 9 kts 90°
2026-04-22 04:27 28.41570 -81.32202 108 ft 10 kts 24°
2026-04-22 04:27 28.41606 -81.32198 108 ft 1 kts
2026-04-22 04:27 28.41629 -81.32198 107 ft 17 kts
2026-04-22 04:28 28.42019 -81.32201 110 ft 94 kts 359°
2026-04-22 04:28 28.42895 -81.32210 110 ft 156 kts 359°
2026-04-22 04:28 28.44083 -81.32220 420 ft 175 kts
2026-04-22 04:28 28.45352 -81.32240 981 ft 185 kts
2026-04-22 04:29 28.46632 -81.32266 1737 ft 185 kts
2026-04-22 04:29 28.47976 -81.32275 2172 ft 205 kts
2026-04-22 04:29 28.49513 -81.32275 2407 ft 233 kts
2026-04-22 04:29 28.51162 -81.32281 3101 ft 240 kts
2026-04-22 04:30 28.52852 -81.32448 3883 ft 246 kts 357°
2026-04-22 04:30 28.54542 -81.32726 4731 ft 246 kts 352°
2026-04-22 04:30 28.56179 -81.33380 5398 ft 254 kts 340°
2026-04-22 04:30 28.57781 -81.34223 6252 ft 251 kts 337°
2026-04-22 04:31 28.59193 -81.35406 6836 ft 257 kts 309°
2026-04-22 04:31 28.59863 -81.37356 6986 ft 282 kts 275°
2026-04-22 04:31 28.59750 -81.39620 6995 ft 289 kts 266°
2026-04-22 04:31 28.59660 -81.41889 6986 ft 292 kts 271°
2026-04-22 04:32 28.59650 -81.44194 6982 ft 290 kts 271°
2026-04-22 04:32 28.59641 -81.46491 6985 ft 289 kts 271°
2026-04-22 04:32 28.59619 -81.48774 6984 ft 286 kts 269°
2026-04-22 04:32 28.59235 -81.50972 6994 ft 286 kts 246°
2026-04-22 04:33 28.58308 -81.53004 7445 ft 293 kts 243°
2026-04-22 04:33 28.57410 -81.55097 8248 ft 295 kts 245°
2026-04-22 04:33 28.56558 -81.57213 9183 ft 293 kts 246°
2026-04-22 04:33 28.55713 -81.59331 10075 ft 294 kts 246°
2026-04-22 04:34 28.54853 -81.61488 10615 ft 308 kts 246°
2026-04-22 04:34 28.53929 -81.63800 10823 ft 335 kts 245°
2026-04-22 04:34 28.52938 -81.66273 11017 ft 360 kts 245°
2026-04-22 04:34 28.51870 -81.68937 11429 ft 378 kts 245°
2026-04-22 04:35 28.50764 -81.71688 12186 ft 385 kts 245°
2026-04-22 04:35 28.49642 -81.74479 13151 ft 389 kts 245°
2026-04-22 04:35 28.48509 -81.77296 14148 ft 392 kts 246°
2026-04-22 04:35 28.47371 -81.80124 15007 ft 395 kts 246°
2026-04-22 04:36 28.46223 -81.82976 15842 ft 399 kts 246°
2026-04-22 04:36 28.45074 -81.85826 16680 ft 403 kts 246°
2026-04-22 04:36 28.43898 -81.88739 17507 ft 407 kts 246°
2026-04-22 04:36 28.42787 -81.91688 18176 ft 405 kts 252°
2026-04-22 04:37 28.42396 -81.94863 18590 ft 409 kts 274°
2026-04-22 04:37 28.42682 -81.98084 18962 ft 413 kts 275°
2026-04-22 04:37 28.42844 -82.01367 19598 ft 417 kts 272°
2026-04-22 04:37 28.42887 -82.04668 20459 ft 416 kts 271°
2026-04-22 04:38 28.42901 -82.07952 21282 ft 416 kts 270°
2026-04-22 04:38 28.42920 -82.11248 22010 ft 419 kts 271°
2026-04-22 04:38 28.42951 -82.14574 22691 ft 422 kts 271°
2026-04-22 04:38 28.42992 -82.17933 23377 ft 425 kts 271°
2026-04-22 04:39 28.43040 -82.21302 24045 ft 428 kts 271°
2026-04-22 04:39 28.43089 -82.24697 24617 ft 430 kts 271°
2026-04-22 04:39 28.43138 -82.28111 25173 ft 433 kts 271°
2026-04-22 04:39 28.43187 -82.31506 25709 ft 437 kts 271°
2026-04-22 04:40 28.43235 -82.34971 26236 ft 440 kts 271°
2026-04-22 04:40 28.43282 -82.38466 26787 ft 443 kts 271°
2026-04-22 04:40 28.43387 -82.41957 27227 ft 441 kts 276°
2026-04-22 04:40 28.44175 -82.45340 27477 ft 450 kts 295°
2026-04-22 04:41 28.45895 -82.48332 27964 ft 456 kts 308°
2026-04-22 04:41 28.48160 -82.50880 28491 ft 462 kts 319°
2026-04-22 04:41 28.50861 -82.52879 28908 ft 467 kts 327°
2026-04-22 04:41 28.53717 -82.54702 29241 ft 473 kts 328°
2026-04-22 04:42 28.56595 -82.56540 29671 ft 476 kts 327°
2026-04-22 04:42 28.59490 -82.58411 30160 ft 477 kts 327°
2026-04-22 04:42 28.62329 -82.60273 30697 ft 475 kts 327°
2026-04-22 04:42 28.65178 -82.62162 31358 ft 470 kts 326°
2026-04-22 04:43 28.67985 -82.64036 32077 ft 464 kts 326°
2026-04-22 04:43 28.70747 -82.65888 32748 ft 459 kts 326°
2026-04-22 04:43 28.73486 -82.67730 33352 ft 455 kts 325°
2026-04-22 04:43 28.76207 -82.69560 33954 ft 452 kts 325°
2026-04-22 04:44 28.78913 -82.71383 34326 ft 453 kts 325°
2026-04-22 04:44 28.81629 -82.73213 34651 ft 453 kts 325°
2026-04-22 04:44 28.84341 -82.75039 35104 ft 451 kts 325°
2026-04-22 04:44 28.87033 -82.76852 35594 ft 447 kts 324°
2026-04-22 04:45 28.89667 -82.78625 36031 ft 443 kts 324°
2026-04-22 04:45 28.92316 -82.80411 36339 ft 444 kts 324°
2026-04-22 04:45 28.94983 -82.82214 36297 ft 446 kts 324°
2026-04-22 04:46 29.00309 -82.85811 36287 ft 441 kts 324°
2026-04-22 04:46 29.05573 -82.89370 36286 ft 438 kts 324°
2026-04-22 04:47 29.10565 -82.93309 36295 ft 435 kts 319°
2026-04-22 04:47 29.15495 -82.97364 36285 ft 437 kts 320°
2026-04-22 04:48 29.20417 -83.01384 36281 ft 438 kts 320°
2026-04-22 04:48 29.25387 -83.05458 36282 ft 439 kts 320°
2026-04-22 04:49 29.30374 -83.09549 36286 ft 440 kts 320°
2026-04-22 04:49 29.35333 -83.13617 36286 ft 441 kts 320°
2026-04-22 04:50 29.40335 -83.17726 36273 ft 442 kts 320°
2026-04-22 04:50 29.45345 -83.21849 36287 ft 443 kts 320°
2026-04-22 04:51 29.50350 -83.25973 36287 ft 443 kts 320°
2026-04-22 04:51 29.55356 -83.30102 36300 ft 443 kts 320°
2026-04-22 04:52 29.60357 -83.34233 36293 ft 443 kts 320°
2026-04-22 04:52 29.65359 -83.38370 36290 ft 442 kts 320°
2026-04-22 04:53 29.70320 -83.42479 36301 ft 443 kts 320°
2026-04-22 04:53 29.75315 -83.46621 36286 ft 442 kts 320°
2026-04-22 04:54 29.80310 -83.50767 36289 ft 442 kts 320°
2026-04-22 04:54 29.85300 -83.54915 36293 ft 442 kts 320°
2026-04-22 04:55 29.90301 -83.59064 36294 ft 443 kts 320°
2026-04-22 04:55 29.95305 -83.63210 36294 ft 443 kts 320°
2026-04-22 04:56 30.00321 -83.67374 36299 ft 443 kts 320°
2026-04-22 04:56 30.05327 -83.71536 36286 ft 443 kts 320°
2026-04-22 04:57 30.10298 -83.75675 36296 ft 443 kts 320°
2026-04-22 04:57 30.15297 -83.79843 36290 ft 443 kts 320°
2026-04-22 04:58 30.20291 -83.84017 36288 ft 443 kts 320°
2026-04-22 04:58 30.25280 -83.88208 36282 ft 443 kts 320°
2026-04-22 04:59 30.30263 -83.92403 36279 ft 443 kts 320°
2026-04-22 04:59 30.35256 -83.96610 36289 ft 444 kts 320°
2026-04-22 05:00 30.40248 -84.00821 36295 ft 444 kts 320°
2026-04-22 05:00 30.45246 -84.05042 36297 ft 445 kts 320°
2026-04-22 05:01 30.50224 -84.09252 36299 ft 445 kts 320°
2026-04-22 05:01 30.55237 -84.13498 36288 ft 446 kts 320°
2026-04-22 05:02 30.60252 -84.17749 36292 ft 446 kts 320°
2026-04-22 05:02 30.65271 -84.22008 36286 ft 446 kts 320°
2026-04-22 05:03 30.70247 -84.26239 36293 ft 445 kts 320°
2026-04-22 05:03 30.75244 -84.30493 36280 ft 445 kts 319°
2026-04-22 05:04 30.79441 -84.34068 36290 ft 446 kts 319°
2026-04-22 05:04 30.84414 -84.38313 36314 ft 446 kts 319°
2026-04-22 05:05 30.89411 -84.42581 36295 ft 444 kts 319°
2026-04-22 05:05 30.94371 -84.46823 36282 ft 440 kts 319°
2026-04-22 05:06 30.99293 -84.51039 36280 ft 437 kts 319°
2026-04-22 05:06 31.04152 -84.55207 36283 ft 435 kts 319°
2026-04-22 05:07 31.09022 -84.59391 36287 ft 434 kts 319°
2026-04-22 05:07 31.13889 -84.63578 36317 ft 435 kts 319°
2026-04-22 05:08 31.18766 -84.67779 36290 ft 436 kts 319°
2026-04-22 05:08 31.23653 -84.71993 36296 ft 437 kts 319°
2026-04-22 05:09 31.28553 -84.76224 36297 ft 438 kts 319°
2026-04-22 05:09 31.33430 -84.80440 36296 ft 439 kts 319°
2026-04-22 05:10 31.38346 -84.84696 36294 ft 440 kts 319°
2026-04-22 05:10 31.43266 -84.88961 36311 ft 440 kts 319°
2026-04-22 05:11 31.48189 -84.93235 36296 ft 440 kts 319°
2026-04-22 05:11 31.53118 -84.97519 36295 ft 440 kts 319°
2026-04-22 05:12 31.58029 -85.01794 36293 ft 439 kts 318°
2026-04-22 05:12 31.62934 -85.06080 36289 ft 439 kts 318°
2026-04-22 05:13 31.67798 -85.10342 36286 ft 439 kts 318°
2026-04-22 05:13 31.72696 -85.14640 36302 ft 440 kts 318°
2026-04-22 05:14 31.77602 -85.18950 36293 ft 440 kts 318°
2026-04-22 05:14 31.82514 -85.23269 36282 ft 441 kts 318°
2026-04-22 05:15 31.87427 -85.27598 36289 ft 441 kts 318°
2026-04-22 05:15 31.92304 -85.31900 36287 ft 441 kts 318°
2026-04-22 05:16 31.97214 -85.36235 36284 ft 441 kts 318°
2026-04-22 05:16 32.02128 -85.40580 36290 ft 442 kts 318°
2026-04-22 05:17 32.07044 -85.44934 36282 ft 442 kts 318°
2026-04-22 05:17 32.11968 -85.49299 36277 ft 443 kts 318°
2026-04-22 05:18 32.19358 -85.55865 36279 ft 443 kts 318°
2026-04-22 05:18 32.24258 -85.60227 36277 ft 444 kts 318°
2026-04-22 05:19 32.29193 -85.64624 36287 ft 444 kts 318°
2026-04-22 05:19 32.34133 -85.69032 36276 ft 445 kts 318°
2026-04-22 05:20 32.39083 -85.73455 36268 ft 445 kts 318°
2026-04-22 05:20 32.44026 -85.77879 36263 ft 446 kts 318°
2026-04-22 05:21 32.48940 -85.82281 36263 ft 445 kts 318°
2026-04-22 05:21 32.53892 -85.86725 36258 ft 445 kts 318°
2026-04-22 05:22 32.58835 -85.91166 36258 ft 446 kts 317°
2026-04-22 05:22 32.63783 -85.95621 36266 ft 447 kts 317°
2026-04-22 05:23 32.68708 -86.00060 36269 ft 447 kts 317°
2026-04-22 05:23 32.73665 -86.04533 36278 ft 447 kts 317°
2026-04-22 05:24 32.78618 -86.09009 36275 ft 447 kts 317°
2026-04-22 05:24 32.83573 -86.13494 36306 ft 447 kts 317°
2026-04-22 05:25 32.88531 -86.17988 36287 ft 448 kts 317°
2026-04-22 05:25 32.93463 -86.22465 36274 ft 449 kts 317°
2026-04-22 05:26 32.98425 -86.26976 36262 ft 449 kts 317°
2026-04-22 05:26 33.03393 -86.31499 36263 ft 450 kts 317°
2026-04-22 05:27 33.08376 -86.36042 36295 ft 450 kts 317°
2026-04-22 05:27 33.13317 -86.40552 36303 ft 450 kts 317°
2026-04-22 05:28 33.18300 -86.45109 36292 ft 450 kts 317°
2026-04-22 05:28 33.23281 -86.49670 36284 ft 450 kts 317°
2026-04-22 05:29 33.28251 -86.54228 36278 ft 450 kts 317°
2026-04-22 05:29 33.33221 -86.58793 36269 ft 451 kts 317°
2026-04-22 05:30 33.38161 -86.63336 36288 ft 451 kts 317°
2026-04-22 05:30 33.43143 -86.67924 36293 ft 451 kts 317°
2026-04-22 05:31 33.48122 -86.72519 36300 ft 452 kts 317°
2026-04-22 05:31 33.53104 -86.77123 36295 ft 452 kts 317°
2026-04-22 05:32 33.58087 -86.81734 36290 ft 453 kts 317°
2026-04-22 05:32 33.63066 -86.86355 36295 ft 452 kts 316°
2026-04-22 05:33 33.67391 -86.91705 36304 ft 444 kts 304°
2026-04-22 05:33 33.70687 -86.97929 36269 ft 440 kts 295°
2026-04-22 05:34 33.73580 -87.04415 36256 ft 441 kts 296°
2026-04-22 05:34 33.76494 -87.10847 36227 ft 441 kts 296°
2026-04-22 05:35 33.79437 -87.17329 36227 ft 442 kts 296°
2026-04-22 05:35 33.82381 -87.23823 36277 ft 442 kts 296°
2026-04-22 05:36 33.85323 -87.30331 36276 ft 443 kts 296°
2026-04-22 05:36 33.88260 -87.36839 36272 ft 443 kts 296°
2026-04-22 05:37 33.91202 -87.43367 36278 ft 443 kts 296°
2026-04-22 05:37 33.94125 -87.49908 36283 ft 443 kts 296°
2026-04-22 05:38 33.97040 -87.56459 36255 ft 444 kts 296°
2026-04-22 05:38 33.99936 -87.62972 36243 ft 444 kts 296°
2026-04-22 05:39 34.02862 -87.69526 36236 ft 444 kts 297°
2026-04-22 05:39 34.06149 -87.75848 36231 ft 445 kts 301°
2026-04-22 05:40 34.09573 -87.82082 36236 ft 445 kts 301°
2026-04-22 05:40 34.12954 -87.88350 36234 ft 446 kts 300°
2026-04-22 05:41 34.16294 -87.94614 36228 ft 446 kts 300°
2026-04-22 05:41 34.19651 -88.00924 36232 ft 446 kts 300°
2026-04-22 05:42 34.22960 -88.07301 35581 ft 457 kts 298°
2026-04-22 05:42 34.24601 -88.10610 34741 ft 460 kts 298°
2026-04-22 05:42 34.26245 -88.13942 33801 ft 462 kts 298°
2026-04-22 05:43 34.27892 -88.17270 33123 ft 458 kts 298°
2026-04-22 05:43 34.29527 -88.20555 32500 ft 452 kts 298°
2026-04-22 05:43 34.31142 -88.23795 31932 ft 447 kts 299°
2026-04-22 05:43 34.32739 -88.26999 31444 ft 441 kts 299°
2026-04-22 05:44 34.34280 -88.30093 31132 ft 432 kts 299°
2026-04-22 05:44 34.35822 -88.33204 30602 ft 428 kts 299°
2026-04-22 05:44 34.37347 -88.36284 30055 ft 425 kts 299°
2026-04-22 05:44 34.38856 -88.39338 29493 ft 421 kts 299°
2026-04-22 05:45 34.40353 -88.42370 28959 ft 417 kts 299°
2026-04-22 05:45 34.41834 -88.45373 28442 ft 412 kts 299°
2026-04-22 05:45 34.43297 -88.48340 27916 ft 408 kts 300°
2026-04-22 05:45 34.44753 -88.51294 27433 ft 405 kts 300°
2026-04-22 05:46 34.46188 -88.54210 26931 ft 402 kts 300°
2026-04-22 05:46 34.47615 -88.57110 26449 ft 399 kts 300°
2026-04-22 05:46 34.49032 -88.59995 25974 ft 396 kts 300°
2026-04-22 05:46 34.50418 -88.62817 25505 ft 394 kts 300°
2026-04-22 05:47 34.51816 -88.65666 25037 ft 392 kts 300°
2026-04-22 05:47 34.53204 -88.68496 24568 ft 390 kts 301°
2026-04-22 05:47 34.54590 -88.71326 24097 ft 389 kts 301°
2026-04-22 05:47 34.55967 -88.74139 23580 ft 388 kts 301°
2026-04-22 05:48 34.57342 -88.76949 23059 ft 385 kts 301°
2026-04-22 05:48 34.58705 -88.79738 22592 ft 383 kts 301°
2026-04-22 05:48 34.60061 -88.82514 22141 ft 380 kts 301°
2026-04-22 05:48 34.61406 -88.85271 21677 ft 378 kts 301°
2026-04-22 05:49 34.62726 -88.87976 21247 ft 376 kts 301°
2026-04-22 05:49 34.63959 -88.90736 20794 ft 369 kts 292°
2026-04-22 05:49 34.64732 -88.93711 20391 ft 371 kts 284°
2026-04-22 05:49 34.65316 -88.96799 19959 ft 380 kts 283°
2026-04-22 05:50 34.65904 -88.99962 19513 ft 386 kts 283°
2026-04-22 05:50 34.66551 -89.03134 19038 ft 387 kts 284°
2026-04-22 05:50 34.67231 -89.06286 18757 ft 380 kts 285°
2026-04-22 05:50 34.67903 -89.09345 18504 ft 372 kts 285°
2026-04-22 05:51 34.68598 -89.12366 18011 ft 370 kts 285°
2026-04-22 05:51 34.69301 -89.15361 17558 ft 367 kts 285°
2026-04-22 05:51 34.69998 -89.18340 17121 ft 364 kts 285°
2026-04-22 05:51 34.70678 -89.21264 16698 ft 362 kts 285°
2026-04-22 05:52 34.71356 -89.24197 16285 ft 359 kts 285°
2026-04-22 05:52 34.72028 -89.27117 15873 ft 356 kts 285°
2026-04-22 05:52 34.72677 -89.30016 15555 ft 354 kts 284°
2026-04-22 05:52 34.73318 -89.32909 15233 ft 355 kts 284°
2026-04-22 05:53 34.73744 -89.34833 15012 ft 356 kts 284°
2026-04-22 05:53 34.74388 -89.37741 14685 ft 356 kts 284°
2026-04-22 05:53 34.75032 -89.40647 14351 ft 356 kts 284°
2026-04-22 05:53 34.75676 -89.43551 14024 ft 355 kts 284°
2026-04-22 05:54 34.76317 -89.46448 13658 ft 354 kts 284°
2026-04-22 05:54 34.76968 -89.49333 13304 ft 350 kts 287°
2026-04-22 05:54 34.77946 -89.52004 12959 ft 345 kts 300°
2026-04-22 05:54 34.79232 -89.54463 12655 ft 344 kts 303°
2026-04-22 05:55 34.80562 -89.56869 12343 ft 342 kts 302°
2026-04-22 05:55 34.81867 -89.59293 12020 ft 341 kts 301°
2026-04-22 05:55 34.83113 -89.61695 11741 ft 337 kts 300°
2026-04-22 05:55 34.84335 -89.64099 11415 ft 332 kts 300°
2026-04-22 05:56 34.85533 -89.66472 11105 ft 326 kts 299°
2026-04-22 05:56 34.86707 -89.68803 10880 ft 316 kts 299°
2026-04-22 05:56 34.87846 -89.71064 10563 ft 312 kts 299°
2026-04-22 05:56 34.88951 -89.73259 10224 ft 294 kts 298°
2026-04-22 05:57 34.90001 -89.75345 9953 ft 285 kts 298°
2026-04-22 05:57 34.91024 -89.77383 9668 ft 279 kts 298°
2026-04-22 05:57 34.92032 -89.79389 9404 ft 275 kts 298°
2026-04-22 05:57 34.93029 -89.81375 9151 ft 274 kts 298°
2026-04-22 05:58 34.94022 -89.83353 8907 ft 273 kts 298°
2026-04-22 05:58 34.95189 -89.85127 8605 ft 267 kts 321°
2026-04-22 05:58 34.96871 -89.85884 8432 ft 262 kts 355°
2026-04-22 05:58 34.98653 -89.85839 8175 ft 252 kts 358°
2026-04-22 05:59 35.00431 -89.85873 7933 ft 253 kts 355°
2026-04-22 05:59 35.02164 -89.85949 7627 ft 251 kts 355°
2026-04-22 05:59 35.03893 -89.86002 7332 ft 246 kts 355°
2026-04-22 05:59 35.05602 -89.86043 7051 ft 246 kts 355°
2026-04-22 06:00 35.07313 -89.86081 6769 ft 247 kts 355°
2026-04-22 06:00 35.09034 -89.86119 6474 ft 246 kts 355°
2026-04-22 06:00 35.10733 -89.86155 6141 ft 243 kts 355°
2026-04-22 06:00 35.12401 -89.86190 5857 ft 237 kts 355°
2026-04-22 06:01 35.14035 -89.86224 5589 ft 234 kts 355°
2026-04-22 06:01 35.15658 -89.86259 5321 ft 233 kts 355°
2026-04-22 06:01 35.17280 -89.86282 5051 ft 234 kts 357°
2026-04-22 06:01 35.18893 -89.86263 4778 ft 234 kts 355°
2026-04-22 06:02 35.20519 -89.86316 4504 ft 235 kts 354°
2026-04-22 06:02 35.22157 -89.86374 4230 ft 235 kts 355°
2026-04-22 06:02 35.23770 -89.86419 3979 ft 228 kts 355°
2026-04-22 06:02 35.25333 -89.86457 3710 ft 223 kts 354°
2026-04-22 06:03 35.26870 -89.86492 3429 ft 218 kts 354°
2026-04-22 06:03 35.28364 -89.86524 3155 ft 212 kts 354°
2026-04-22 06:03 35.29815 -89.86559 3055 ft 207 kts 353°
2026-04-22 06:03 35.31186 -89.86964 2977 ft 198 kts 320°
2026-04-22 06:04 35.32011 -89.88182 2996 ft 183 kts 281°
2026-04-22 06:04 35.32137 -89.89690 3013 ft 177 kts 266°
2026-04-22 06:04 35.32188 -89.91208 3004 ft 183 kts 268°
2026-04-22 06:04 35.32256 -89.92766 2991 ft 181 kts 267°
2026-04-22 06:05 35.32033 -89.94205 2970 ft 169 kts 231°
2026-04-22 06:05 35.31041 -89.94923 3008 ft 172 kts 197°
2026-04-22 06:05 35.29900 -89.95416 2999 ft 177 kts 211°
2026-04-22 06:05 35.28844 -89.96184 2990 ft 176 kts 210°
2026-04-22 06:06 35.27772 -89.96885 2978 ft 173 kts 210°
2026-04-22 06:06 35.26681 -89.97463 2975 ft 172 kts 193°
2026-04-22 06:06 35.25468 -89.97561 2946 ft 178 kts 187°
2026-04-22 06:06 35.24228 -89.97641 2831 ft 177 kts 185°
2026-04-22 06:07 35.23028 -89.97657 2748 ft 167 kts 184°
2026-04-22 06:07 35.21916 -89.97646 2619 ft 157 kts 184°
2026-04-22 06:07 35.20841 -89.97629 2541 ft 154 kts 184°
2026-04-22 06:07 35.19767 -89.97608 2471 ft 155 kts 184°
2026-04-22 06:08 35.18680 -89.97586 2396 ft 157 kts 184°
2026-04-22 06:08 35.17590 -89.97563 2309 ft 156 kts 184°
2026-04-22 06:08 35.16510 -89.97540 2221 ft 154 kts 184°
2026-04-22 06:08 35.15468 -89.97517 2142 ft 145 kts 184°
2026-04-22 06:09 35.14497 -89.97495 2085 ft 136 kts 185°
2026-04-22 06:09 35.13551 -89.97477 2015 ft 139 kts 185°
2026-04-22 06:09 35.12579 -89.97458 1820 ft 139 kts 185°
2026-04-22 06:09 35.11631 -89.97437 1636 ft 135 kts 184°
2026-04-22 06:10 35.10687 -89.97416 1459 ft 136 kts 184°
2026-04-22 06:10 35.09736 -89.97398 1283 ft 137 kts 182°
2026-04-22 06:10 35.08770 -89.97377 1103 ft 140 kts 182°
2026-04-22 06:10 35.07805 -89.97357 917 ft 141 kts 181°
2026-04-22 06:11 35.06820 -89.97342 720 ft 141 kts 179°
2026-04-22 06:11 35.05833 -89.97315 515 ft 143 kts 179°
2026-04-22 06:11 35.04846 -89.97291 367 ft 142 kts 179°
2026-04-22 06:11 35.03921 -89.97274 332 ft 112 kts 179°
2026-04-22 06:12 35.03360 -89.97263 330 ft 63 kts 179°
2026-04-22 06:12 35.02937 -89.97254 332 ft 57 kts 179°
2026-04-22 06:12 35.02649 -89.97245 331 ft 25 kts 173°
2026-04-22 06:12 35.02565 -89.97113 331 ft 12 kts 80°
2026-04-22 06:13 35.02579 -89.97068 332 ft 5 kts 59°
2026-04-22 06:13 35.02607 -89.97037 332 ft 6 kts 28°
2026-04-22 06:13 35.02651 -89.97026 332 ft 8 kts
2026-04-22 06:13 35.02718 -89.97027 332 ft 11 kts 358°
2026-04-22 06:14 35.02808 -89.97044 332 ft 15 kts 346°
2026-04-22 06:14 35.02920 -89.97069 331 ft 18 kts 355°
2026-04-22 06:14 35.03053 -89.97074 332 ft 21 kts 359°
2026-04-22 06:14 35.03200 -89.97077 333 ft 21 kts 359°
2026-04-22 06:15 35.03348 -89.97081 332 ft 21 kts 359°
2026-04-22 06:15 35.03497 -89.97084 332 ft 21 kts 359°
2026-04-22 06:15 35.03646 -89.97087 332 ft 21 kts 359°
2026-04-22 06:15 35.03794 -89.97090 333 ft 21 kts 359°
2026-04-22 06:16 35.03943 -89.97093 332 ft 21 kts 359°
2026-04-22 06:16 35.04091 -89.97097 332 ft 21 kts 359°
2026-04-22 06:16 35.04240 -89.97100 332 ft 21 kts 359°
2026-04-22 06:16 35.04386 -89.97077 332 ft 21 kts 13°
2026-04-22 06:17 35.04534 -89.97061 332 ft 21 kts 359°
2026-04-22 06:17 35.04683 -89.97065 332 ft 21 kts 359°
2026-04-22 06:17 35.04831 -89.97068 331 ft 21 kts 359°
2026-04-22 06:17 35.04977 -89.97068 332 ft 21 kts
2026-04-22 06:18 35.05125 -89.97049 332 ft 21 kts
2026-04-22 06:18 35.05272 -89.97021 333 ft 21 kts
2026-04-22 06:18 35.05418 -89.96994 333 ft 21 kts
2026-04-22 06:18 35.05565 -89.96965 332 ft 21 kts
2026-04-22 06:19 35.05712 -89.96937 332 ft 21 kts
2026-04-22 06:19 35.05844 -89.96912 331 ft 17 kts 12°
2026-04-22 06:19 35.05926 -89.96878 330 ft 10 kts
2026-04-22 06:19 35.05990 -89.96876 332 ft 3 kts
2026-04-22 06:20 35.05995 -89.96876 332 ft 0 kts